Total_Precipitation_Accumulation
0.20 0.53 1.06 1.68 2.76 2.97 2.00 1.15 0.88 0.75 0.71 0.67 0.59 0.62 0.87 1.29 1.90 2.87 2.66 2.14 1.96 2.15 2.48 2.86 3.05 2.83 2.73 2.62 2.75 2.88 2.74 2.75 2.56 2.45 2.28 2.18 1.97 1.68 1.51 1.41 1.40 1.38 1.29 1.11 1.15 1.19 1.14 1.27 1.42
0.44 0.84 1.27 2.05 2.84 2.28 1.56 0.99 0.82 0.63 0.55 0.58 0.68 0.78 0.79 0.97 0.98 1.46 2.12 2.18 1.75 1.81 2.24 2.34 2.65 2.58 2.42 2.31 2.46 2.52 2.54 2.46 2.38 2.20 2.04 1.99 1.90 1.63 1.35 1.27 1.28 1.24 1.17 1.12 1.17 1.18 1.21 1.24 1.29
0.73 0.99 1.53 2.25 2.06 1.33 0.99 0.73 0.60 0.58 0.55 0.65 0.77 0.83 0.89 1.09 1.05 1.55 2.05 1.83 1.61 1.70 2.02 2.32 2.38 2.18 2.07 2.00 2.14 2.22 2.23 2.15 2.17 2.01 1.89 1.78 1.66 1.46 1.24 1.14 1.18 1.16 1.15 1.10 1.12 1.27 1.36 1.31 1.32
0.90 1.24 1.49 1.74 1.35 0.66 0.42 0.43 0.42 0.63 0.77 0.91 0.95 1.02 1.07 1.06 1.11 1.46 1.67 1.41 1.34 1.35 1.50 1.88 2.04 1.91 1.91 1.89 1.89 1.97 1.95 1.97 2.01 1.91 1.77 1.80 1.72 1.56 1.30 1.15 1.14 1.16 1.19 1.17 1.18 1.32 1.38 1.31 1.30
0.87 1.33 1.74 1.35 0.81 0.49 0.34 0.31 0.45 0.67 0.84 0.92 1.01 1.29 1.62 1.47 1.17 1.32 1.35 1.23 1.18 1.24 1.34 1.57 1.84 1.75 1.74 1.70 1.62 1.72 1.79 1.80 1.80 1.78 1.59 1.66 1.67 1.56 1.34 1.18 1.14 1.09 1.14 1.21 1.24 1.29 1.31 1.28 1.34
1.16 1.47 1.45 1.01 0.57 0.37 0.35 0.34 0.44 0.61 0.79 0.95 1.26 1.56 1.96 1.91 1.59 1.45 1.29 1.38 1.31 1.18 1.24 1.48 1.76 1.73 1.66 1.62 1.61 1.71 1.77 1.64 1.59 1.59 1.48 1.48 1.53 1.52 1.44 1.30 1.24 1.15 1.17 1.28 1.30 1.30 1.26 1.27 1.40
1.24 1.26 0.96 0.68 0.52 0.37 0.34 0.34 0.43 0.62 0.82 1.09 1.38 1.63 1.89 2.06 1.89 1.66 1.51 1.58 1.70 1.47 1.46 1.51 1.56 1.59 1.65 1.80 1.89 1.97 1.88 1.61 1.51 1.52 1.45 1.38 1.38 1.40 1.35 1.40 1.37 1.31 1.31 1.37 1.45 1.42 1.38 1.40 1.53
0.70 0.85 0.65 0.48 0.53 0.45 0.31 0.31 0.43 0.66 0.87 1.10 1.34 1.55 1.96 1.84 1.74 1.84 2.09 2.29 2.39 2.22 2.05 1.81 1.66 1.76 1.67 1.74 1.97 2.08 1.80 1.57 1.50 1.56 1.55 1.53 1.61 1.62 1.64 1.54 1.54 1.61 1.71 1.72 1.78 1.68 1.60 1.63 1.75
0.48 0.75 0.64 0.42 0.39 0.40 0.29 0.31 0.41 0.47 0.71 0.98 1.19 1.30 1.36 1.44 1.72 2.10 2.57 2.76 2.65 2.71 2.52 2.24 2.00 1.83 1.89 1.88 1.93 2.25 2.06 1.83 1.89 2.12 2.13 2.26 2.66 2.44 2.44 1.96 1.97 2.15 2.33 2.36 2.37 2.29 2.14 1.99 1.91
0.47 0.64 0.43 0.25 0.17 0.19 0.22 0.30 0.37 0.54 1.03 1.62 1.59 1.28 1.15 1.42 1.81 2.12 2.54 2.94 2.61 2.76 2.49 2.35 2.28 1.95 1.94 2.05 2.47 2.99 2.59 2.41 2.52 2.82 2.76 3.14 3.18 3.00 2.25 2.24 2.63 2.89 3.22 3.28 3.25 3.25 2.85 2.43 2.18
0.32 0.38 0.24 0.12 0.09 0.08 0.12 0.21 0.30 0.60 1.14 1.84 2.02 1.59 1.47 1.63 2.03 2.12 2.45 2.83 2.75 2.61 2.50 2.26 2.55 2.30 2.37 2.72 2.80 3.00 3.04 2.94 2.95 3.04 3.03 3.31 2.96 2.61 2.50 2.91 3.31 3.61 3.75 3.88 3.84 3.74 3.13 3.12 3.27
0.20 0.16 0.11 0.08 0.07 0.07 0.17 0.26 0.38 0.53 1.02 1.33 1.32 1.23 1.40 1.68 2.05 2.28 2.50 2.95 2.83 2.50 2.47 2.51 2.68 2.78 2.98 3.01 2.90 2.75 2.54 2.54 2.72 2.91 2.86 3.03 3.14 3.12 3.08 3.36 3.54 3.80 4.17 4.56 4.39 4.35 3.98 3.88 3.62
0.14 0.15 0.13 0.12 0.10 0.12 0.17 0.23 0.37 0.58 0.75 0.83 0.81 1.00 1.43 1.77 2.26 2.69 3.23 3.60 3.48 3.20 3.00 3.06 3.29 3.29 3.26 3.29 3.03 2.54 2.37 2.26 2.30 2.46 2.57 2.51 2.91 3.22 3.26 3.18 3.32 3.23 3.44 3.89 4.49 4.36 4.51 4.38 3.92
0.10 0.11 0.13 0.15 0.12 0.16 0.18 0.21 0.41 0.70 0.73 0.77 0.93 1.21 1.60 2.06 2.52 2.91 3.79 4.32 4.39 4.20 3.97 3.77 3.90 3.54 3.33 3.28 3.04 2.79 2.42 2.43 2.32 2.26 2.19 2.36 2.64 3.01 3.03 3.03 3.31 3.30 3.19 3.37 3.86 4.02 4.45 4.40 3.98
0.14 0.18 0.20 0.20 0.15 0.16 0.21 0.46 0.63 0.73 0.91 0.97 1.16 1.38 1.71 2.29 2.81 3.40 4.05 4.85 5.15 5.31 4.91 4.33 4.07 3.81 3.61 3.47 3.12 2.73 2.53 2.36 2.49 2.47 2.29 2.30 2.43 2.72 2.74 2.86 2.91 2.94 2.84 3.00 3.23 3.45 3.74 3.65 3.46
0.23 0.38 0.49 0.29 0.18 0.17 0.28 0.80 0.89 0.71 1.05 1.40 1.36 1.63 2.04 2.57 3.09 3.86 4.59 5.41 5.89 6.04 5.50 4.77 4.01 4.13 4.08 3.88 3.28 2.80 2.59 2.53 2.50 2.37 2.19 2.08 2.20 2.20 2.36 2.42 2.40 2.44 2.33 2.49 2.90 2.95 3.18 3.35 3.34
0.28 0.39 0.44 0.36 0.21 0.20 0.30 0.77 0.93 0.73 0.97 1.29 1.50 1.76 2.20 2.63 2.98 3.63 4.26 5.07 5.68 6.16 6.00 5.37 5.23 5.05 4.43 3.77 3.21 2.84 2.62 2.57 2.33 2.26 2.21 2.10 2.01 2.09 2.26 2.43 2.45 2.10 2.13 2.31 2.13 2.60 2.87 3.06 3.08
0.30 0.27 0.34 0.41 0.29 0.28 0.39 0.63 0.88 0.92 1.17 1.52 1.64 1.75 2.02 2.29 2.62 3.08 3.66 4.10 4.70 5.19 5.10 5.03 5.17 4.77 4.17 3.57 3.14 2.93 2.69 2.42 2.25 2.21 2.28 2.24 2.14 2.14 2.49 2.33 2.16 1.95 2.29 2.60 2.67 3.00 2.92 2.77 2.80
0.20 0.21 0.29 0.35 0.29 0.35 0.50 0.66 0.90 1.09 1.37 1.64 1.63 1.59 1.66 1.95 2.27 2.47 2.86 3.27 3.54 3.72 3.83 4.16 4.33 4.10 3.65 3.26 2.79 2.67 2.62 2.39 2.20 2.11 1.94 2.11 2.05 2.28 2.65 2.39 2.68 2.34 2.38 2.54 2.61 2.86 2.79 2.48 2.42
0.15 0.17 0.29 0.36 0.30 0.35 0.51 0.84 1.04 1.10 1.15 1.31 1.43 1.37 1.47 1.79 1.89 1.98 2.12 2.47 2.69 2.94 3.22 3.56 3.79 3.66 3.08 2.85 2.67 2.59 2.56 2.40 2.42 2.29 2.27 2.01 2.01 2.25 2.32 2.68 2.46 2.50 2.62 2.64 2.74 2.91 2.91 2.61 2.55
0.14 0.15 0.20 0.30 0.34 0.44 0.57 1.21 1.31 1.10 1.02 0.96 1.13 1.20 1.20 1.40 1.62 1.72 1.76 1.88 2.14 2.72 2.95 2.85 3.10 3.29 3.01 2.92 2.87 2.78 2.75 2.55 2.64 2.58 2.46 2.07 1.93 1.95 2.15 2.33 2.34 2.57 2.37 2.73 2.96 2.91 3.02 3.01 2.82
0.14 0.13 0.13 0.18 0.27 0.58 0.67 1.31 1.40 1.17 1.17 0.97 0.94 0.99 0.94 0.93 1.21 1.42 1.39 1.45 1.68 2.00 2.30 2.65 2.97 3.06 2.97 2.86 2.70 2.60 2.39 2.33 2.35 2.33 2.33 2.20 2.08 1.95 2.03 2.18 2.47 2.63 2.36 2.91 2.50 2.64 2.91 3.07 2.88
0.08 0.08 0.10 0.17 0.28 0.52 0.64 1.06 1.32 1.17 1.35 1.08 0.76 0.64 0.60 0.61 0.76 0.94 1.07 1.21 1.28 1.43 1.84 2.42 2.89 3.12 3.00 2.68 2.55 2.67 2.52 2.43 2.38 2.25 2.43 2.29 2.14 1.97 1.86 2.15 2.42 2.53 2.41 2.57 2.63 2.91 2.81 2.76 2.76
0.05 0.08 0.19 0.34 0.50 0.90 0.86 0.95 1.25 1.06 0.90 0.71 0.55 0.45 0.46 0.52 0.55 0.64 0.77 1.00 1.14 1.24 1.51 1.96 2.40 2.68 2.74 2.60 2.47 2.54 2.64 2.60 2.46 2.33 2.29 2.11 2.07 2.00 1.92 2.11 2.41 2.37 2.39 2.57 2.55 2.72 2.72 2.78 2.88
0.05 0.10 0.40 0.69 0.93 1.07 0.70 0.90 1.26 0.83 0.66 0.56 0.48 0.44 0.40 0.41 0.54 0.67 0.76 0.89 0.92 1.00 1.27 1.59 1.82 2.03 2.25 2.41 2.45 2.39 2.56 2.63 2.41 2.18 2.22 2.18 2.02 2.02 2.08 2.22 2.50 2.40 2.46 2.52 2.76 2.86 2.78 2.77 2.80
0.06 0.09 0.25 0.43 0.54 0.66 0.69 1.35 1.24 0.65 0.52 0.44 0.38 0.39 0.39 0.45 0.54 0.65 0.81 0.89 0.85 0.89 1.12 1.36 1.56 1.79 2.06 2.22 2.29 2.24 2.21 2.12 2.08 2.21 2.11 2.11 2.09 2.04 1.96 2.11 2.14 2.13 2.23 2.30 2.81 2.66 2.61 2.70 2.62
0.07 0.08 0.12 0.19 0.25 0.49 0.82 1.03 0.78 0.45 0.42 0.44 0.40 0.42 0.47 0.55 0.67 0.76 0.90 0.95 0.87 0.93 1.12 1.25 1.47 1.65 1.79 2.04 2.22 2.13 2.08 1.95 1.93 1.98 1.95 1.90 2.05 2.02 1.95 1.90 1.95 2.01 2.18 2.35 2.55 2.48 2.57 2.77 2.61
0.07 0.07 0.11 0.13 0.21 0.38 0.68 0.93 1.00 0.75 0.59 0.48 0.47 0.50 0.52 0.66 0.84 0.97 0.97 1.00 0.97 1.04 1.23 1.28 1.39 1.48 1.52 1.69 1.77 1.67 1.86 1.88 2.00 1.98 1.89 1.82 1.82 1.87 1.94 2.01 2.01 2.06 2.14 2.35 2.56 2.56 2.70 2.79 2.66
0.09 0.07 0.07 0.09 0.12 0.25 0.56 0.75 0.72 0.69 0.65 0.50 0.47 0.56 0.64 0.67 0.85 0.97 0.93 0.93 0.90 0.96 1.06 1.08 1.21 1.33 1.39 1.54 1.62 1.69 1.79 1.84 1.89 1.92 1.91 1.91 1.92 1.93 1.93 2.03 2.09 2.11 2.14 2.32 2.50 2.41 2.66 2.79 2.83
0.11 0.12 0.12 0.11 0.10 0.16 0.28 0.44 0.41 0.48 0.55 0.48 0.51 0.64 0.74 0.59 0.67 0.88 0.96 0.99 0.80 0.85 0.92 0.98 1.11 1.24 1.31 1.49 1.63 1.70 1.88 1.93 1.87 1.91 2.12 2.12 2.07 2.03 2.02 2.10 2.19 2.16 2.20 2.36 2.36 2.21 2.32 2.52 2.73